TimeEST,TemperatureF,Dew PointF,Humidity,Sea Level PressureIn,VisibilityMPH,Wind Direction,Wind SpeedMPH,Gust SpeedMPH,PrecipitationIn,Events,Conditions,WindDirDegrees,DateUTC
12:53 AM,36.0,28.9,76,30.32,9.0,Calm,Calm,-,N/A,,Clear,0,2012-11-16 05:53:00
1:53 AM,37.0,28.9,73,30.31,8.0,Calm,Calm,-,N/A,,Clear,0,2012-11-16 06:53:00
2:53 AM,36.0,28.9,76,30.31,7.0,Calm,Calm,-,N/A,,Clear,0,2012-11-16 07:53:00
3:53 AM,36.0,30.0,79,30.31,8.0,Calm,Calm,-,N/A,,Clear,0,2012-11-16 08:53:00
4:53 AM,37.0,30.0,76,30.32,10.0,Calm,Calm,-,N/A,,Clear,0,2012-11-16 09:53:00
5:53 AM,36.0,30.0,79,30.32,6.0,Calm,Calm,-,N/A,,Haze,0,2012-11-16 10:53:00
6:53 AM,37.0,30.0,76,30.34,10.0,Calm,Calm,-,N/A,,Clear,0,2012-11-16 11:53:00
7:53 AM,36.0,28.9,76,30.35,9.0,Calm,Calm,-,N/A,,Clear,0,2012-11-16 12:53:00
8:53 AM,36.0,28.9,76,30.37,10.0,Calm,Calm,-,N/A,,Clear,0,2012-11-16 13:53:00
9:53 AM,46.0,26.1,46,30.37,10.0,NNE,3.5,-,N/A,,Clear,20,2012-11-16 14:53:00
10:53 AM,48.0,25.0,41,30.37,10.0,Variable,3.5,-,N/A,,Clear,0,2012-11-16 15:53:00
11:53 AM,48.9,25.0,39,30.35,10.0,Variable,3.5,-,N/A,,Clear,0,2012-11-16 16:53:00
12:53 PM,50.0,25.0,38,30.33,10.0,Variable,5.8,-,N/A,,Clear,0,2012-11-16 17:53:00
1:53 PM,52.0,26.1,37,30.32,10.0,East,3.5,-,N/A,,Clear,90,2012-11-16 18:53:00
2:53 PM,52.0,26.1,37,30.33,10.0,ENE,6.9,-,N/A,,Clear,60,2012-11-16 19:53:00
3:53 PM,53.1,25.0,34,30.34,10.0,Calm,Calm,-,N/A,,Clear,0,2012-11-16 20:53:00
4:53 PM,48.0,26.1,42,30.37,10.0,Calm,Calm,-,N/A,,Clear,0,2012-11-16 21:53:00
5:53 PM,43.0,28.0,56,30.40,10.0,Calm,Calm,-,N/A,,Clear,0,2012-11-16 22:53:00
6:53 PM,41.0,28.0,60,30.42,10.0,Calm,Calm,-,N/A,,Clear,0,2012-11-16 23:53:00
7:53 PM,39.9,28.0,63,30.43,10.0,Calm,Calm,-,N/A,,Clear,0,2012-11-17 00:53:00
8:53 PM,37.9,27.0,65,30.45,10.0,Calm,Calm,-,N/A,,Clear,0,2012-11-17 01:53:00
9:53 PM,37.9,27.0,65,30.45,10.0,Calm,Calm,-,N/A,,Clear,0,2012-11-17 02:53:00
10:53 PM,37.9,27.0,65,30.45,10.0,Calm,Calm,-,N/A,,Clear,0,2012-11-17 03:53:00
11:53 PM,37.9,26.1,62,30.46,10.0,Calm,Calm,-,N/A,,Clear,0,2012-11-17 04:53:00